Location: Asheville, NC
(35.6000°N, 82.5500°W)
Time: 05:48:12
(UTC-04:00)

LilacSat-2 - Pass Details

Date: 07 January 2018
Orbit: 515 x 536 km, 97.5° (Epoch: 20 April)

Event Time Altitude Azimuth Distance (km) Brightness Sun altitude
Rises 07:05:55 0° 359° (N) 2,668 ? -7.2°
Reaches altitude 10° 07:08:12 10° 349° (N) 1,770 ? -6.8°
Maximum altitude 07:11:33 30° 288° (WNW) 964 ? -6.1°
Drops below altitude 10° 07:14:51 10° 226° (SW) 1,748 ? -5.5°
Sets 07:17:06 0° 215° (SW) 2,628 ? -5.1°
